Location: Kergrach
(48.3833°N, 4.5167°W)
Time: 20:04:59
(UTC+00:00)

SMAP - Pass Details

Date: 18 February 2020
Orbit: 681 x 683 km, 98.1° (Epoch: 30 March)

Event Time Altitude Azimuth Distance (km) Brightness Sun altitude
Rises 06:30:45 0° 16° (NNE) 3,059 6.5 -9.0°
Reaches altitude 10° 06:33:02 10° 20° (NNE) 2,138 5.8 -8.6°
Maximum altitude 06:37:40 64° 102° (ESE) 760 3.7 -7.9°
Drops below altitude 10° 06:42:17 10° 184° (S) 2,120 5.7 -7.1°
Sets 06:44:32 0° 187° (S) 3,031 6.4 -6.7°
